Regional Weather Roundup
Issued by NWS

Home | Current Version | Previous Version | Graphics & Text | Print | Product List | Glossary On
Versions: 1 2 3 4 5 6 7 8 9 10 11 12 13 14 15 16 17 18 19 20 21 22 23 24 25 26 27
000
ASUS45 KPSR 251810
RWRAZ

ARIZONA HOURLY REGIONAL WEATHER ROUNDUP
NATIONAL WEATHER SERVICE PHOENIX AZ
1100 AM MST SUN FEB 25 2018

NOTE: FAIR INDICATES FEW OR NO CLOUDS BELOW 12,000 FEET WITH NO
SIGNIFICANT WEATHER AND/OR OBSTRUCTIONS TO VISIBILITY.

AZZ001>003-036-251900-
NORTHWEST ARIZONA

CITY           SKY/WX    TMP DP  RH WIND       PRES   REMARKS
BULLHEAD CITY  SUNNY     54   7  15 N16       30.31F
KINGMAN        SUNNY     43   6  21 N9        30.26S
6HR MIN TEMP:  23; 6HR MAX TEMP:  43;

$$

AZZ004>008-015-016-018-251900-
NORTH CENTRAL ARIZONA

CITY           SKY/WX    TMP DP  RH WIND       PRES   REMARKS
GRAND CANYON   SUNNY     30   5  34 CALM      30.16S
6HR MIN TEMP:   6; 6HR MAX TEMP:  30;

WILLIAMS       SUNNY     28   3  34 NE8       30.15S WCI  20
PRESCOTT       SUNNY     37   8  30 NE3       30.21R
6HR MIN TEMP:  18; 6HR MAX TEMP:  37;

FLAGSTAFF      SUNNY     30   1  29 NE9       30.16R WCI  22
6HR MIN TEMP:   3; 6HR MAX TEMP:  30;

PAYSON         SUNNY     39   5  24 SE6G12    30.18S WCI  35
PAGE           SUNNY     38  12  34 VRB6      30.21R WCI  33
6HR MIN TEMP:  28; 6HR MAX TEMP:  38;

$$

AZZ009>014-017-251900-
NORTHEAST ARIZONA

CITY           SKY/WX    TMP DP  RH WIND       PRES   REMARKS
WINSLOW        SUNNY     40  12  32 N8        30.22S WCI  34
6HR MIN TEMP:  19; 6HR MAX TEMP:  40;

SAINT JOHNS    SUNNY     36  11  35 N8        30.19R WCI  30
6HR MIN TEMP:  19; 6HR MAX TEMP:  36;

WINDOW ROCK    MOSUNNY   32  12  43 VRB5      30.15R WCI  27
6HR MIN TEMP:  19; 6HR MAX TEMP:  32; 6HR PCP: TRACE;

SHOW LOW       SUNNY     32   7  34 NW8       30.19R WCI  25
$$

AZZ540-542>544-546-548-251900-
GREATER PHOENIX AREA

CITY           SKY/WX    TMP DP  RH WIND       PRES   REMARKS
PHOENIX        SUNNY     52  17  25 W6        30.22F
6HR MIN TEMP:  39; 6HR MAX TEMP:  53;

BUCKEYE        SUNNY     50  19  29 S5        30.25S
GLENDALE       SUNNY     54  18  24 CALM      30.25F
LUKE AFB       SUNNY     54  17  23 N5        30.22F
6HR MIN TEMP:  33; 6HR MAX TEMP:  54;

DEER VALLEY    SUNNY     54  10  17 W5        30.21F
6HR MIN TEMP:  35; 6HR MAX TEMP:  54;

SCOTTSDALE     SUNNY     54  18  24 SE3       30.23S
6HR MIN TEMP:  35; 6HR MAX TEMP:  54;

MESA-FALCON    SUNNY     54  14  20 NE6       30.23S
MESA-GATEWAY   SUNNY     52  16  24 CALM      30.24
CHANDLER       SUNNY     52  19  28 CALM      30.23F
$$

AZZ539-553-251900-
SOUTHWEST MARICOPA COUNTY AND PINAL COUNTY

CITY           SKY/WX    TMP DP  RH WIND       PRES   REMARKS
CASA GRANDE    NOT AVBL
GILA BEND      FAIR      53  12  19 N5        30.24S
6HR MIN TEMP:  33; 6HR MAX TEMP:  53;

$$

AZZ503-504-507>509-251900-
SOUTHEAST ARIZONA

CITY           SKY/WX    TMP DP  RH WIND       PRES   REMARKS
TUCSON         SUNNY     51  18  27 VRB5      30.21F
6HR MIN TEMP:  33; 6HR MAX TEMP:  51;

DAVIS-MONTHAN  SUNNY     50  23  35 CALM      30.19S
6HR MIN TEMP:  29; 6HR MAX TEMP:  50;

RYAN FIELD     SUNNY     54  19  26 W5        30.22S
NOGALES        SUNNY     51  13  21 CALM      30.18R
6HR MIN TEMP:  25; 6HR MAX TEMP:  51;

SIERRA VISTA   SUNNY     49  10  21 CALM      30.19R
6HR MIN TEMP:  28; 6HR MAX TEMP:  49;

DOUGLAS        SUNNY     51  12  21 N8        30.18R
6HR MIN TEMP:  19; 6HR MAX TEMP:  51;

SAFFORD        SUNNY     51   9  18 W15       30.17S
6HR MIN TEMP:  26; 6HR MAX TEMP:  51;

$$

AZZ532-251900-
SOUTHWEST ARIZONA

CITY           SKY/WX    TMP DP  RH WIND       PRES   REMARKS
YUMA           SUNNY     59  14  17 NE7       30.26F
6HR MIN TEMP:  36; 6HR MAX TEMP:  59;

$$

CAZ041-043-047-048-061-525>527-560>570-251900-
SOUTHERN CALIFORNIA

CITY           SKY/WX    TMP DP  RH WIND       PRES   REMARKS
DOWNTOWN L.A.  SUNNY     60  28  29 CALM      30.22F
6HR MIN TEMP:  44; 6HR MAX TEMP:  60;

L.A. AIRPORT   MOSUNNY   60  32  34 NE8       30.23F
6HR MIN TEMP:  44; 6HR MAX TEMP:  60;

SAN DIEGO      SUNNY     59  28  30 N9        30.22F
6HR MIN TEMP:  46; 6HR MAX TEMP:  59;

BURBANK        SUNNY     57  29  34 VRB6      30.22S
6HR MIN TEMP:  40; 6HR MAX TEMP:  58;

ONTARIO        SUNNY     56  27  32 W7        30.22R
6HR MIN TEMP:  35; 6HR MAX TEMP:  56;

RIVERSIDE      SUNNY     58  20  22 VRB5      30.23R
6HR MIN TEMP:  36; 6HR MAX TEMP:  59;

PALM SPRINGS   SUNNY     63  12  13 VRB5      30.30S
6HR MIN TEMP:  50; 6HR MAX TEMP:  63;

EL CENTRO NAS  SUNNY     63  17  17 N10       30.30S
6HR MIN TEMP:  37; 6HR MAX TEMP:  63;

IMPERIAL       SUNNY     62  21  20 N7        30.28S
6HR MIN TEMP:  36; 6HR MAX TEMP:  62;

BLYTHE         SUNNY     57  13  17 E7        30.29S
6HR MIN TEMP:  38; 6HR MAX TEMP:  57;

NEEDLES        SUNNY     58   8  13 N16       30.31S
6HR MIN TEMP:  37; 6HR MAX TEMP:  58;

$$

NVZ020-UTZ003-251900-
SOUTHERN NEVADA-UTAH

CITY           SKY/WX    TMP DP  RH WIND       PRES   REMARKS
LAS VEGAS      SUNNY     48  10  21 N10       30.29S
6HR MIN TEMP:  39; 6HR MAX TEMP:  48;

SALT LAKE CITY MOSUNNY   31  11  43 VRB3      30.24S
6HR MIN TEMP:  26; 6HR MAX TEMP:  34; 6HR PCP: TRACE;

$$

NMZ009-TXZ055-251900-
NEW MEXICO-WEST TEXAS

CITY           SKY/WX    TMP DP  RH WIND       PRES   REMARKS
ALBUQUERQUE    MOSUNNY   37  18  46 NW13G22   30.13R WCI  29
6HR MIN TEMP:  24; 6HR MAX TEMP:  37;

EL PASO        SUNNY     54   8  16 W3        30.13R
6HR MIN TEMP:  35; 6HR MAX TEMP:  54;

$$


........................KEY........................
SKY/WX - SKY CONDITION/WEATHER
TMP    - TEMPERATURE IN FAHRENHEIT
DP     - DEW POINT IN FAHRENHEIT
RH     - RELATIVE HUMIDITY IN PERCENT
WIND   - DIRECTION AND SPEED IN MILES PER HOUR (MPH)
VRB    - VARIABLE WIND DIRECTION
PRES   - MEAN SEA LEVEL PRESSURE IN INCHES OF MERCURY
         F - FALLING PRESSURE   R - RISING PRESSURE
         S - STEADY PRESSURE
VSB    - VISIBILITY IN MILES
HX     - HEAT INDEX IN FAHRENHEIT
WCI    - WIND CHILL INDEX IN FAHRENHEIT
TC     - TEMPERATURE IN CELSIUS WHICH IS ALSO KNOWN AS
         TEMPERATURE IN CENTIGRADE
AFB    - AIR FORCE BASE
         LUKE AFB IS LUKE AIR FORCE BASE
         DAVIS-MONTHAN IS DAVIS-MONTHAN AIR FORCE BASE
NAS    - NAVAL AIR STATION
         EL CENTRO NAS IS EL CENTRO NAVAL AIR STATION
N/A    - NOT AVAILABLE





USA.gov is the U.S. government's official web portal to all federal, state and local government web resources and services.